| time (UTC) | temp F | wind direction | speed knots | gust knots | rain 1hr in | rain 24hr in | rain mn in | humidity % | barometer mb |
| 20260504231300 | 66 | 233 | 2.6 | 4.3 | 0.00 | 0.00 | 0.00 | 37 | 1004.7 |
| 20260504230756 | 66 | 233 | 2.6 | 2.6 | 0.00 | 0.00 | 0.00 | 39 | 1004.6 |
| 20260504230254 | 67 | 247 | 4.3 | 4.3 | 0.00 | 0.00 | 0.00 | 37 | 1004.6 |
| 20260504225753 | 67 | 262 | 6.1 | 6.1 | 0.00 | 0.00 | 0.00 | 36 | 1004.5 |
| 20260504225249 | 67 | 261 | 4.3 | 6.1 | 0.00 | 0.00 | 0.00 | 37 | 1004.6 |
| 20260504224746 | 68 | 245 | 3.5 | 4.3 | 0.00 | 0.00 | 0.00 | 36 | 1004.3 |
| 20260504224243 | 67 | 238 | 2.6 | 2.6 | 0.00 | 0.00 | 0.00 | 37 | 1004.2 |
| 20260504223740 | 67 | 237 | 1.7 | 2.6 | 0.00 | 0.00 | 0.00 | 38 | 1004.1 |
| 20260504223235 | 67 | 258 | 2.6 | 4.3 | 0.00 | 0.00 | 0.00 | 37 | 1004.4 |
| 20260504222733 | 67 | 243 | 3.5 | 6.1 | 0.00 | 0.00 | 0.00 | 37 | 1004.3 |
| 20260504222229 | 67 | 241 | 3.5 | 4.3 | 0.00 | 0.00 | 0.00 | 37 | 1004.3 |
| 20260504221727 | 66 | 257 | 2.6 | 4.3 | 0.00 | 0.00 | 0.00 | 38 | 1004.2 |
| 20260504221224 | 67 | 240 | 4.3 | 4.3 | 0.00 | 0.00 | 0.00 | 38 | 1004.1 |
| 20260504220720 | 66 | 258 | 4.3 | 6.1 | 0.00 | 0.00 | 0.00 | 36 | 1004.4 |
| 20260504220218 | 67 | 266 | 3.5 | 6.1 | 0.00 | 0.00 | 0.00 | 36 | 1004.2 |
| 20260504215714 | 66 | 281 | 3.5 | 4.3 | 0.00 | 0.00 | 0.00 | 35 | 1004.3 |
| 20260504215211 | 66 | 266 | 4.3 | 6.1 | 0.00 | 0.00 | 0.00 | 36 | 1004.2 |
| 20260504214707 | 66 | 255 | 4.3 | 6.1 | 0.00 | 0.00 | 0.00 | 37 | 1004.2 |
| 20260504214204 | 67 | 277 | 8.7 | 10.4 | 0.00 | 0.00 | 0.00 | 36 | 1004.2 |
| 20260504213700 | 67 | 265 | 7.8 | 10.4 | 0.00 | 0.00 | 0.00 | 35 | 1004.2 |
| 20260504213157 | 69 | 266 | 7.0 | 8.7 | 0.00 | 0.00 | 0.00 | 35 | 1004.0 |
| 20260504212654 | 68 | 317 | 6.1 | 13.0 | 0.00 | 0.00 | 0.00 | 34 | 1004.2 |
| 20260504212150 | 68 | 245 | 7.8 | 8.7 | 0.00 | 0.00 | 0.00 | 34 | 1004.1 |
| 20260504211648 | 69 | 257 | 7.0 | 8.7 | 0.00 | 0.00 | 0.00 | 35 | 1004.2 |
| 20260504211144 | 69 | 278 | 4.3 | 7.8 | 0.00 | 0.00 | 0.00 | 36 | 1004.2 |
| 20260504210642 | 68 | 250 | 6.1 | 10.4 | 0.00 | 0.00 | 0.00 | 34 | 1004.0 |
| 20260504210138 | 68 | 267 | 6.1 | 7.8 | 0.00 | 0.00 | 0.00 | 36 | 1004.0 |
| 20260504205636 | 67 | 257 | 7.8 | 8.7 | 0.00 | 0.00 | 0.00 | 36 | 1004.1 |
| 20260504205133 | 67 | 249 | 6.1 | 8.7 | 0.00 | 0.00 | 0.00 | 39 | 1004.0 |
| 20260504204632 | 67 | 289 | 8.7 | 12.2 | 0.00 | 0.00 | 0.00 | 37 | 1004.1 |
| 20260504204130 | 68 | 266 | 7.8 | 12.2 | 0.00 | 0.00 | 0.00 | 35 | 1004.1 |
| 20260504203628 | 68 | 273 | 9.6 | 12.2 | 0.00 | 0.00 | 0.00 | 36 | 1004.2 |
| 20260504203125 | 68 | 233 | 12.2 | 14.8 | 0.00 | 0.00 | 0.00 | 35 | 1004.2 |
| 20260504202620 | 67 | 325 | 8.7 | 14.8 | 0.00 | 0.00 | 0.00 | 36 | 1004.0 |
| 20260504202117 | 67 | 269 | 8.7 | 12.2 | 0.00 | 0.00 | 0.00 | 37 | 1004.3 |
| 20260504201614 | 67 | 255 | 7.0 | 13.0 | 0.00 | 0.00 | 0.00 | 38 | 1004.2 |
| 20260504201112 | 67 | 273 | 7.0 | 7.8 | 0.00 | 0.00 | 0.00 | 37 | 1004.2 |
| 20260504200609 | 66 | 266 | 9.6 | 14.8 | 0.00 | 0.00 | 0.00 | 38 | 1004.2 |
| 20260504200105 | 66 | 252 | 7.8 | 13.0 | 0.00 | 0.00 | 0.00 | 38 | 1004.4 |
| 20260504195601 | 66 | 305 | 13.0 | 16.5 | 0.00 | 0.00 | 0.00 | 39 | 1004.5 |
| 20260504195057 | 66 | 270 | 7.8 | 8.7 | 0.00 | 0.00 | 0.00 | 39 | 1004.3 |
| 20260504194554 | 67 | 266 | 9.6 | 13.0 | 0.00 | 0.00 | 0.00 | 38 | 1004.5 |
| 20260504194050 | 66 | 274 | 9.6 | 14.8 | 0.00 | 0.00 | 0.00 | 39 | 1004.8 |
| 20260504193547 | 66 | 282 | 7.8 | 8.7 | 0.00 | 0.00 | 0.00 | 39 | 1004.4 |
| 20260504193045 | 66 | 268 | 11.3 | 13.0 | 0.00 | 0.00 | 0.00 | 41 | 1004.7 |
| 20260504192543 | 66 | 310 | 9.6 | 13.0 | 0.00 | 0.00 | 0.00 | 42 | 1004.8 |
| 20260504192041 | 65 | 279 | 7.0 | 13.0 | 0.00 | 0.00 | 0.00 | 41 | 1004.6 |
| 20260504191538 | 65 | 293 | 7.0 | 8.7 | 0.00 | 0.00 | 0.00 | 41 | 1004.7 |
| 20260504191034 | 64 | 278 | 3.5 | 10.4 | 0.00 | 0.00 | 0.00 | 45 | 1004.7 |
| 20260504190531 | 63 | 311 | 1.7 | 2.6 | 0.00 | 0.00 | 0.00 | 45 | 1004.8 |
| 20260504190027 | 62 | 339 | 2.6 | 2.6 | 0.00 | 0.00 | 0.00 | 46 | 1004.8 |
| 20260504185525 | 62 | 270 | 3.5 | 7.8 | 0.00 | 0.00 | 0.00 | 46 | 1005.0 |
| 20260504185021 | 62 | 312 | 2.6 | 4.3 | 0.00 | 0.00 | 0.00 | 47 | 1005.0 |
| 20260504184516 | 62 | 272 | 4.3 | 10.4 | 0.00 | 0.00 | 0.00 | 45 | 1005.1 |
| 20260504184012 | 63 | 266 | 4.3 | 7.8 | 0.00 | 0.00 | 0.00 | 45 | 1005.1 |
| 20260504183509 | 62 | 271 | 5.2 | 7.8 | 0.00 | 0.00 | 0.00 | 46 | 1005.2 |
| 20260504183008 | 62 | 326 | 5.2 | 7.8 | 0.00 | 0.00 | 0.00 | 47 | 1005.2 |
| 20260504182504 | 64 | 323 | 5.2 | 8.7 | 0.00 | 0.00 | 0.00 | 45 | 1005.1 |
| 20260504182001 | 64 | 278 | 2.6 | 4.3 | 0.00 | 0.00 | 0.00 | 46 | 1005.1 |
| 20260504181458 | 61 | 313 | 4.3 | 8.7 | 0.00 | 0.00 | 0.00 | 48 | 1005.2 |
| 20260504180956 | 61 | 286 | 5.2 | 7.8 | 0.00 | 0.00 | 0.00 | 48 | 1005.3 |
| 20260504180455 | 61 | 277 | 4.3 | 7.8 | 0.00 | 0.00 | 0.00 | 48 | 1005.2 |
| 20260504175953 | 61 | 309 | 5.2 | 6.1 | 0.00 | 0.00 | 0.00 | 47 | 1005.1 |
| 20260504175450 | 61 | 295 | 5.2 | 7.8 | 0.00 | 0.00 | 0.00 | 46 | 1005.2 |
| 20260504174947 | 61 | 288 | 4.3 | 6.1 | 0.00 | 0.00 | 0.00 | 47 | 1005.2 |
| 20260504174445 | 62 | 315 | 2.6 | 7.8 | 0.00 | 0.00 | 0.00 | 45 | 1005.2 |
| 20260504173942 | 62 | 273 | 7.0 | 13.0 | 0.00 | 0.00 | 0.00 | 44 | 1005.0 |
| 20260504173438 | 63 | 303 | 7.0 | 13.0 | 0.00 | 0.00 | 0.00 | 42 | 1005.0 |
| 20260504172936 | 63 | 273 | 6.1 | 10.4 | 0.00 | 0.00 | 0.00 | 43 | 1005.0 |
| 20260504172432 | 61 | 283 | 6.1 | 8.7 | 0.00 | 0.00 | 0.00 | 44 | 1005.2 |
| 20260504171929 | 61 | 285 | 9.6 | 14.8 | 0.00 | 0.00 | 0.00 | 43 | 1005.3 |
| 20260504171426 | 61 | 292 | 6.1 | 13.0 | 0.00 | 0.00 | 0.00 | 43 | 1005.2 |
| 20260504170923 | 61 | 253 | 9.6 | 10.4 | 0.00 | 0.00 | 0.00 | 43 | 1005.1 |
| 20260504170419 | 61 | 284 | 8.7 | 13.0 | 0.00 | 0.00 | 0.00 | 41 | 1005.0 |
| 20260504160338 | 63 | 255 | 8.7 | 12.2 | 0.00 | 0.00 | 0.00 | 40 | 1004.4 |
| 20260504150803 | 60 | 236 | 6.1 | 8.7 | 0.00 | 0.00 | 0.00 | 46 | 1005.2 |
| 20260504150259 | 59 | 242 | 4.3 | 7.8 | 0.00 | 0.00 | 0.00 | 48 | 1005.3 |
| 20260504141229 | 55 | 212 | 3.5 | 4.3 | 0.00 | 0.00 | 0.00 | 57 | 1006.0 |
| 20260504140726 | 54 | 231 | 4.3 | 6.1 | 0.00 | 0.00 | 0.00 | 59 | 1006.5 |
| 20260504140221 | 54 | 222 | 5.2 | 7.8 | 0.00 | 0.00 | 0.00 | 59 | 1006.0 |
| 20260504130650 | 51 | 252 | 2.6 | 7.8 | 0.00 | 0.00 | 0.00 | 66 | 1006.9 |
| 20260504130146 | 51 | 219 | 7.8 | 8.7 | 0.00 | 0.00 | 0.00 | 63 | 1007.0 |
| 20260504120110 | 48 | 246 | 6.1 | 7.8 | 0.00 | 0.00 | 0.00 | 65 | 1007.5 |
| 20260504110537 | 45 | 8 | 1.7 | 2.6 | 0.00 | 0.00 | 0.00 | 63 | 1007.4 |
| 20260504100454 | 43 | 269 | 4.3 | 6.1 | 0.00 | 0.00 | 0.00 | 61 | 1007.2 |
| 20260504081847 | 44 | 256 | 5.2 | 7.8 | 0.00 | 0.00 | 0.00 | 51 | 1007.2 |
| 20260504081343 | 42 | 252 | 4.3 | 7.8 | 0.00 | 0.00 | 0.00 | 53 | 1007.2 |
| 20260504080839 | 43 | 262 | 2.6 | 2.6 | 0.00 | 0.00 | 0.00 | 53 | 1007.2 |
| 20260504080337 | 43 | 279 | 2.6 | 4.3 | 0.00 | 0.00 | 0.00 | 52 | 1007.2 |
| 20260504070304 | 42 | 262 | 4.3 | 6.1 | 0.00 | 0.00 | 0.00 | 55 | 1007.3 |
| 20260504060224 | 42 | 258 | 5.2 | 6.1 | 0.00 | 0.00 | 0.00 | 57 | 1007.1 |
| 20260504050652 | 42 | 265 | 4.3 | 6.1 | 0.00 | 0.00 | 0.00 | 59 | 1006.9 |
| 20260504050149 | 42 | 260 | 5.2 | 6.1 | 0.00 | 0.00 | 0.00 | 59 | 1006.9 |
| 20260504045646 | 41 | 251 | 5.2 | 6.1 | 0.00 | 0.00 | 0.00 | 61 | 1007.2 |
| 20260504045146 | 40 | 264 | 4.3 | 4.3 | 0.00 | 0.00 | 0.00 | 64 | 1007.0 |
| 20260504044644 | 40 | 264 | 3.5 | 6.1 | 0.00 | 0.00 | 0.00 | 64 | 1007.2 |
| 20260504044141 | 41 | 264 | 3.5 | 4.3 | 0.00 | 0.00 | 0.00 | 63 | 1007.1 |
| 20260504043638 | 41 | 259 | 3.5 | 4.3 | 0.00 | 0.00 | 0.00 | 64 | 1006.9 |
| 20260504043135 | 41 | 263 | 2.6 | 4.3 | 0.00 | 0.00 | 0.00 | 63 | 1006.9 |
| 20260504042632 | 41 | 256 | 2.6 | 4.3 | 0.00 | 0.00 | 0.00 | 62 | 1007.1 |
| 20260504042129 | 41 | 245 | 2.6 | 2.6 | 0.00 | 0.00 | 0.00 | 63 | 1007.0 |
| 20260504041625 | 41 | 244 | 2.6 | 2.6 | 0.00 | 0.00 | 0.00 | 62 | 1006.9 |
| 20260504041121 | 40 | 245 | 2.6 | 2.6 | 0.00 | 0.00 | 0.00 | 64 | 1007.0 |
| 20260504040619 | 40 | 243 | 1.7 | 2.6 | 0.00 | 0.00 | 0.00 | 64 | 1007.0 |
| 20260504040115 | 41 | 243 | 2.6 | 2.6 | 0.00 | 0.00 | 0.00 | 64 | 1007.1 |
| 20260504035612 | 40 | 243 | 1.7 | 2.6 | 0.00 | 0.00 | 0.00 | 65 | 1006.9 |
| 20260504035108 | 40 | 243 | 1.7 | 2.6 | 0.00 | 0.00 | 0.00 | 63 | 1006.8 |
| 20260504034607 | 40 | 244 | 0.9 | 1.7 | 0.00 | 0.00 | 0.00 | 67 | 1006.7 |
| 20260504034103 | 41 | 243 | 0.9 | 1.7 | 0.00 | 0.00 | 0.00 | 62 | 1006.8 |
| 20260504033601 | 41 | 244 | 1.7 | 2.6 | 0.00 | 0.00 | 0.00 | 63 | 1006.9 |
| 20260504033058 | 41 | 243 | 1.7 | 1.7 | 0.00 | 0.00 | 0.00 | 61 | 1006.7 |
| 20260504032555 | 41 | 244 | 0.9 | 2.6 | 0.00 | 0.00 | 0.00 | 61 | 1006.8 |
| 20260504032052 | 41 | 254 | 2.6 | 4.3 | 0.00 | 0.00 | 0.00 | 61 | 1007.1 |
| 20260504031549 | 41 | 214 | 1.7 | 1.7 | 0.00 | 0.00 | 0.00 | 62 | 1006.8 |
| 20260504031045 | 40 | 222 | 1.7 | 2.6 | 0.00 | 0.00 | 0.00 | 62 | 1006.7 |
| 20260504030542 | 41 | 221 | 1.7 | 1.7 | 0.00 | 0.00 | 0.00 | 65 | 1006.9 |
| 20260504030038 | 40 | 223 | 1.7 | 2.6 | 0.00 | 0.00 | 0.00 | 65 | 1006.8 |
| 20260504025536 | 40 | 294 | 0.9 | 1.7 | 0.00 | 0.00 | 0.00 | 67 | 1006.7 |
| 20260504025032 | 40 | 294 | 0.0 | 1.7 | 0.00 | 0.00 | 0.00 | 69 | 1006.8 |
| 20260504024529 | 39 | 295 | 0.0 | 0.0 | 0.00 | 0.00 | 0.00 | 72 | 1006.8 |
| 20260504024026 | 40 | 295 | 0.0 | 0.0 | 0.00 | 0.00 | 0.00 | 68 | 1006.8 |
| 20260504023523 | 41 | 295 | 0.0 | 1.7 | 0.00 | 0.00 | 0.00 | 68 | 1006.9 |
| 20260504023019 | 40 | 276 | 2.6 | 4.3 | 0.00 | 0.00 | 0.00 | 66 | 1006.9 |
| 20260504022514 | 40 | 296 | 2.6 | 4.3 | 0.00 | 0.00 | 0.00 | 70 | 1007.0 |
| 20260504022011 | 39 | 307 | 2.6 | 4.3 | 0.00 | 0.00 | 0.00 | 71 | 1007.0 |
| 20260504021509 | 38 | 326 | 1.7 | 2.6 | 0.00 | 0.00 | 0.00 | 81 | 1007.0 |
| 20260504021006 | 40 | 327 | 1.7 | 1.7 | 0.00 | 0.00 | 0.00 | 77 | 1006.8 |
| 20260504020503 | 41 | 322 | 1.7 | 1.7 | 0.00 | 0.00 | 0.00 | 68 | 1006.8 |
| 20260504015959 | 41 | 301 | 1.7 | 2.6 | 0.00 | 0.00 | 0.00 | 67 | 1006.8 |
| 20260504015455 | 42 | 284 | 2.6 | 2.6 | 0.00 | 0.00 | 0.00 | 66 | 1006.7 |
| 20260504014951 | 42 | 300 | 2.6 | 4.3 | 0.00 | 0.00 | 0.00 | 65 | 1006.6 |
| 20260504014447 | 42 | 299 | 3.5 | 4.3 | 0.00 | 0.00 | 0.00 | 63 | 1006.9 |
| 20260504013944 | 43 | 319 | 2.6 | 4.3 | 0.00 | 0.00 | 0.00 | 60 | 1006.7 |
| 20260504013443 | 43 | 285 | 5.2 | 6.1 | 0.00 | 0.00 | 0.00 | 59 | 1006.9 |
| 20260504012938 | 42 | 292 | 3.5 | 4.3 | 0.00 | 0.00 | 0.00 | 64 | 1006.7 |
| 20260504012437 | 42 | 274 | 2.6 | 4.3 | 0.00 | 0.00 | 0.00 | 69 | 1006.7 |
| 20260504011934 | 43 | 314 | 1.7 | 2.6 | 0.00 | 0.00 | 0.00 | 68 | 1006.7 |
| 20260504011431 | 43 | 322 | 1.7 | 2.6 | 0.00 | 0.00 | 0.00 | 64 | 1006.5 |
| 20260504010927 | 44 | 295 | 2.6 | 4.3 | 0.00 | 0.00 | 0.00 | 60 | 1006.6 |
| 20260504010423 | 44 | 287 | 2.6 | 4.3 | 0.00 | 0.00 | 0.00 | 60 | 1006.7 |
| 20260504005919 | 44 | 286 | 4.3 | 4.3 | 0.00 | 0.00 | 0.00 | 59 | 1006.7 |
| 20260504005416 | 44 | 280 | 4.3 | 6.1 | 0.00 | 0.00 | 0.00 | 58 | 1006.5 |
| 20260504004913 | 44 | 283 | 4.3 | 6.1 | 0.00 | 0.00 | 0.00 | 58 | 1006.4 |
| 20260504004411 | 44 | 281 | 4.3 | 6.1 | 0.00 | 0.00 | 0.00 | 58 | 1006.4 |
| 20260504003908 | 44 | 280 | 2.6 | 4.3 | 0.00 | 0.00 | 0.00 | 60 | 1006.2 |
| 20260504003404 | 44 | 327 | 1.7 | 2.6 | 0.00 | 0.00 | 0.00 | 60 | 1006.1 |
| 20260504002901 | 43 | 311 | 2.6 | 2.6 | 0.00 | 0.00 | 0.00 | 59 | 1006.2 |
| 20260504002358 | 43 | 294 | 3.5 | 4.3 | 0.00 | 0.00 | 0.00 | 64 | 1006.2 |
| 20260504001855 | 43 | 27 | 1.7 | 1.7 | 0.00 | 0.00 | 0.00 | 59 | 1005.9 |
| 20260504001353 | 44 | 34 | 1.7 | 1.7 | 0.00 | 0.00 | 0.00 | 58 | 1005.9 |
| 20260504000849 | 45 | 330 | 1.7 | 2.6 | 0.00 | 0.00 | 0.00 | 54 | 1005.9 |
| 20260504000346 | 45 | 279 | 2.6 | 2.6 | 0.00 | 0.00 | 0.00 | 53 | 1005.8 |
| 20260503235844 | 45 | 308 | 1.7 | 4.3 | 0.00 | 0.00 | 0.00 | 52 | 1005.7 |
| 20260503235341 | 46 | 289 | 2.6 | 2.6 | 0.00 | 0.00 | 0.00 | 53 | 1005.8 |
| 20260503234838 | 46 | 286 | 3.5 | 4.3 | 0.00 | 0.00 | 0.00 | 53 | 1005.6 |
| 20260503234336 | 46 | 283 | 2.6 | 6.1 | 0.00 | 0.00 | 0.00 | 52 | 1005.5 |
| 20260503233834 | 46 | 288 | 3.5 | 6.1 | 0.00 | 0.00 | 0.00 | 52 | 1005.5 |
| 20260503233330 | 46 | 298 | 4.3 | 7.8 | 0.00 | 0.00 | 0.00 | 50 | 1005.5 |
| 20260503232826 | 47 | 308 | 4.3 | 7.8 | 0.00 | 0.00 | 0.00 | 50 | 1005.3 |
| 20260503232324 | 47 | 328 | 6.1 | 6.1 | 0.00 | 0.00 | 0.00 | 51 | 1005.5 |
| 20260503231821 | 47 | 286 | 3.5 | 7.8 | 0.00 | 0.00 | 0.00 | 50 | 1005.2 |